Regional Weather Roundup
Issued by NWS

Home | Current Version | Previous Version | Graphics & Text | Print | Product List | Glossary On
Versions: 1 2 3 4 5 6 7 8 9 10 11 12 13 14 15 16 17 18 19 20 21 22 23 24 25 26 27 28 29 30 31 32 33 34 35 36 37 38 39 40 41 42 43 44 45 46 47 48 49 50
000
ASUS43 KMPX 282210
RWRMN
WEATHER ROUNDUP FOR MINNESOTA
NATIONAL WEATHER SERVICE TWIN CITIES/CHANHASSEN MN
400 PM CST FRI NOV 28 2014


NOTE: "FAIR" INDICATES FEW OR NO CLOUDS BELOW 12,000 FEET WITH NO
SIGNIFICANT WEATHER AND/OR OBSTRUCTIONS TO VISIBILITY. N/A MEANS
CURRENT SKY AND/OR WEATHER CONDITIONS ARE NOT AVAILABLE.

MNZ060>063-068>070-282300-
   Twin Cities Metro

CITY           SKY/WX    TMP DP  RH WIND       PRES   REMARKS
TWIN CITIES    CLOUDY    22  15  75 SE10      29.85S WCI  11
ST PAUL        CLOUDY    23  16  74 E9        29.87S WCI  13
CRYSTAL        CLOUDY    23  15  71 E9        29.83F WCI  13
BLAINE         MOCLDY    25  18  74 E6        29.84F WCI  18
LAKEVILLE      MOCLDY    21  18  86 SE8       29.82S WCI  12
EDEN PRAIRIE   CLOUDY    23  16  74 E12       29.82F WCI  12
SOUTH ST PAUL  CLOUDY    24  16  71 SE6       29.85F WCI  17
LAKE ELMO      CLOUDY    23  18  80 SE6       29.85F WCI  16
$$
MNZ001>005-007-008-013>017-022>024-027-028-282300-
   Northwest Minnesota

CITY           SKY/WX    TMP DP  RH WIND       PRES   REMARKS
BEMIDJI        CLOUDY    14   8  78 E9        29.79S WCI   2
HALLOCK        PTCLDY    19  10  68 SE10      29.79F WCI   8
ROSEAU         MOCLDY    16  10  79 E12       29.82S WCI   3
WARROAD        PTCLDY    16   9  73 E14       29.82S WCI   1
THIEF RVR FALL CLOUDY    16  10  79 SE13      29.78F WCI   2
CROOKSTON      CLOUDY    16  10  79 SE12      29.79F WCI   3
FOSSTON        CLOUDY    14   7  73 SE7       29.78F WCI   4
DETROIT LAKES  MOCLDY    18  12  79 SE10      29.77F WCI   6
MOORHEAD       PTCLDY    18  12  79 SE8       29.78F WCI   7
PARK RAPIDS    CLOUDY    15   8  73 E9        29.78S WCI   3
MAHNOMEN       LGT SNOW  17  11  80 E7        29.76F WCI   7
$$
MNZ006-009>011-018-025>026-282300-
   North Central Minnesota

CITY           SKY/WX    TMP DP  RH WIND       PRES   REMARKS
BAUDETTE       CLOUDY    15   8  73 E12       29.83F WCI   2
FLAG ISLAND    CLOUDY    12   5  73 E6        29.84F WCI   3
INTL FALLS     CLOUDY    15   7  70 E7        29.85F WCI   5
WASKISH        CLOUDY    16  10  79 E12       29.79F WCI   3
BIG FORK       MOCLDY    16   9  73 E6        29.85R WCI   7
LONGVILLE      CLOUDY    16   9  73 E3        29.82R
GRAND RAPIDS   CLOUDY    14   7  73 E6        29.82S WCI   5
CRANE LAKE     CLOUDY    16  10  79 CALM      29.91S
ORR            CLOUDY    16   9  73 CALM      29.83F
COOK           FLURRIES  16  10  79 CALM      29.85F
WALKER         CLOUDY    14   8  76 SE6       29.81S WCI   5
$$
MNZ012-019>021-037-282300-
   Northeast Minnesota

CITY           SKY/WX    TMP DP  RH WIND       PRES   REMARKS
DULUTH         LGT SNOW  15  11  83 E8        29.83F WCI   4
ELY            CLOUDY    18  12  79 E5        29.85F WCI  11
HIBBING        LGT SNOW  18  10  71 E6        29.84F WCI  10
EVELETH        MIX PCPN  19  12  73 E5        29.85S WCI  13
DULUTH HARBOR  CLOUDY    19  12  73 CALM      29.91F
TWO HARBORS    LGT SNOW  19  14  79 CALM      29.85F
SILVER BAY     MOCLDY    19  16  86 E3        29.86F
GRAND MARAIS     N/A     23  14  68 E13       29.95F WCI  11
G MARAIS ARPRT LGT SNOW  16   9  73 E6        29.87F WCI   7
$$
MNZ029>031-032-039>041-046>048-054>057-064-282300-
   West Central Minnesota

CITY           SKY/WX    TMP DP  RH WIND       PRES   REMARKS
FERGUS FALLS   MOCLDY    18   9  68 E6        29.80F WCI   9
WHEATON        MOCLDY    18  12  79 E9        29.79R WCI   6
MORRIS         PTCLDY    19  14  79 SE12      29.75S WCI   7
ALEXANDRIA     CLOUDY    17  11  77 E13       29.76S WCI   4
ELBOW LAKE     CLOUDY    17  12  80 E9        29.76S WCI   5
WADENA         MOCLDY    14   9  79 E9        29.77F WCI   2
GLENWOOD       PTCLDY    18  12  79 E15       29.76F WCI   3
APPLETON       PTCLDY    19  14  79 E9        29.76F WCI   9
BENSON         PTCLDY    19  14  79 SE10      29.76S WCI   8
ORTONVILLE     MOCLDY    16  12  86 SE9       29.74F WCI   4
MADISON        MOCLDY    21  18  86 E8        29.75F WCI  12
WILLMAR        FAIR      21  14  73 E13       29.77F WCI   9
$$
MNZ033>034-036-042>043-049>051-058-059-282300-
   Central Minnesota

CITY           SKY/WX    TMP DP  RH WIND       PRES   REMARKS
ST CLOUD       CLOUDY    20  13  74 E5        29.82F WCI  13
SAUK CENTRE    CLOUDY    17  13  82 E10       29.78S WCI   5
PAYNESVILLE    MOCLDY    17  12  82 NE8       29.78F WCI   6
AITKIN         CLOUDY    19  10  68 E5        29.82S WCI  13
PINE RIVER     CLOUDY    16   9  73 SE5       29.85R WCI   9
BRAINERD       CLOUDY    15   9  76 VRB6      29.83S WCI   6
STAPLES        CLOUDY    16   9  73 E6        29.79F WCI   7
LONG PRAIRIE   CLOUDY    16  10  79 E8        29.78F WCI   5
LITTLE FALLS   FLURRIES  18  12  79 E7        29.82S WCI   8
LITCHFIELD     PTCLDY    21  18  86 E13       29.79F WCI   9
BUFFALO        MOCLDY    21  15  76 E9        29.83S WCI  11
MAPLE LAKE     MOCLDY    22  17  80 E9        29.82F WCI  11
$$
MNZ037-044-045-052-053-282300-
   East Central Minnesota

CITY           SKY/WX    TMP DP  RH WIND       PRES   REMARKS
PRINCETON      MOCLDY    19  16  86 E7        29.83F WCI  10
MORA             N/A    N/A N/A N/A MISG        N/A
CAMBRIDGE      MOCLDY    21  12  68 E6        29.83R WCI  14
RUSH CITY      CLOUDY    19  13  76 E5        29.87S WCI  12
MOOSE LAKE     CLOUDY    18  10  73 CALM      29.84S
HINCKLEY       CLOUDY    19  14  79 CALM      29.86F
CLOQUET        CLOUDY    14   9  79 E8        29.84F WCI   3
MCGREGOR       CLOUDY    18  12  79 E7        29.84S WCI   8
$$
MNZ071>073-080-081-089-090-097-098-282300-
   Southwest Minnesota

CITY           SKY/WX    TMP DP  RH WIND       PRES   REMARKS
MONTEVIDEO     PTCLDY    18  16  93 SE9       29.76S WCI   6
GRANITE FALLS  PTCLDY    20  17  85 E6        29.77R WCI  13
CANBY          MOCLDY    20  17  88 E8        29.74R WCI  11
MARSHALL       PTCLDY    21  18  86 E10       29.72S WCI  10
REDWOOD FALLS  MOCLDY    23  17  78 E7        29.75F WCI  15
OLIVIA         MOCLDY    21  18  86 E12       29.75S WCI   9
PIPESTONE      MOCLDY    32  27  80 SE9       29.65S WCI  24
WINDOM         PTCLDY    27  21  80 E12       29.71  WCI  16
WORTHINGTON    PTCLDY    28  23  80 SE12      29.69S WCI  18
JACKSON        PTCLDY    28  23  80 SE12      29.72F WCI  18
TRACY          PTCLDY    25  21  85 E10       29.72R WCI  15
SLAYTON        PTCLDY    29  26  87 SE10      29.68F WCI  20
$$
MNZ065>067-074>077-082>085-091>093-282300-
   South Central Minnesota

CITY           SKY/WX    TMP DP  RH WIND       PRES   REMARKS
MANKATO        MOCLDY    23  18  80 SE12      29.78F WCI  12
NEW ULM        MOCLDY    21  19  93 E7        29.77S WCI  13
ST JAMES       MOCLDY    25  21  86 E12       29.77F WCI  14
FAIRMONT       PTCLDY    25  19  80 SE12      29.74F WCI  14
GLENCOE        PTCLDY    21  18  86 E10       29.79F WCI  10
FARIBAULT      PTCLDY    25  19  80 E9        29.81F WCI  15
OWATONNA       FAIR      25  19  80 SE12      29.79F WCI  14
WASECA         FAIR      23  18  80 E13       29.81S WCI  11
ALBERT LEA     PTCLDY    25  21  86 SE8       29.79S WCI  16
$$
MNZ078>079-086>088-094>096-282300-
   Southeast Minnesota

CITY           SKY/WX    TMP DP  RH WIND       PRES   REMARKS
ROCHESTER      PTCLDY    24  19  81 SE8       29.83S WCI  15
RED WING       MOCLDY    25  16  68 SE7       29.86S WCI  17
STANTON        PTCLDY    25  19  77 E5        29.82S WCI  19
DODGE CENTER   PTCLDY    23  21  93 SE13      29.80F WCI  11
WINONA         MIX PCPN  28  21  74 CALM      29.90R
AUSTIN         FAIR      25  19  80 SE8       29.80F WCI  16
PRESTON        CLOUDY    24  19  82 SE8       29.83F WCI  15
$$
ABBREVIATIONS USED IN REMARKS
   TC - TEMPERATURES IN CELSIUS
  WCI - WIND CHILL INDEX
   HX - HEAT INDEX
  VSB - VISIBILITY
$$



USA.gov is the U.S. government's official web portal to all federal, state and local government web resources and services.